Flag for Germany Weather past 2 weeks in Weil am Rhein, Baden-Württemberg, Germany

49 °F


Feels Like: 48 °F
Forecast: 46 / 62 °F
Wind: 3 mph from Northwest

Location: Bale-Mulhouse

Current Time: Oct 10, 2015 at 8:20:11 AM

Latest Report: Oct 10, 2015 at 7:00 AM

Visibility: 0 mi

Pressure: 30.03 "Hg

Humidity: 99%

Dew point: 49 °F

Location of Weil am RheinLocation

Historic Weather in Weil am Rhein — Graph


Weil am Rhein temperature yesterday

Maximum temperature yesterday: 62 °F (at 4:00 PM)
Minimum temperature yesterday: 48 °F (at 3:00 AM)
Average temperature yesterday: 54 °F

Past Weeks' High & Low Weather Summary

High71 °F (Oct 3, 4:00 PM)100% (Sep 26, 7:00 AM)30.47 "Hg (Sep 26, 7:00 AM)
Low36 °F (Oct 2, 6:00 AM)37% (Sep 29, 4:00 PM)29.71 "Hg (Oct 6, 11:00 AM)
Average55 °F76%30.14 "Hg
* Reported Sep 25 7:00 AM — Oct 10 7:00 AM, Weil am Rhein, Weather by CustomWeather, © 2015

Note: Actual official high and low records may vary slightly from our data, if they occured in-between our weather recording intervals... More about our weather records


Weil am Rhein weather history for previous 24 hours

Time TempWeatherWind HumidityBarometerVisibility
7:00 AM
Sat, Oct 10
49 °FFog.3 mph99%30.03 "Hg0 mi
6:00 AM49 °FFog.1 mph99%30.03 "Hg0 mi
4:00 AM49 °FLow clouds.1 mph99%30.04 "Hg2 mi
3:00 AM46 °FLow clouds.1 mph98%30.06 "Hg4 mi
2:00 AM46 °FCool.5 mph98%30.06 "Hg2 mi
1:00 AM47 °FHeavy rain. Overcast.6 mph98%30.06 "Hg0 mi
12:00 AM47 °FPassing clouds.5 mph94%30.07 "Hg8 mi
10:00 PM
Fri, Oct 9
50 °FPassing clouds.5 mph94%30.08 "Hg11 mi
9:00 PM53 °FPassing clouds.3 mph88%30.07 "Hg11 mi
8:00 PM53 °FPassing clouds.5 mph84%30.06 "Hg11 mi
7:00 PM57 °FPassing clouds.7 mph74%30.05 "Hg16 mi
6:00 PM61 °FPartly sunny.6 mph69%30.05 "Hg16 mi
5:00 PM61 °FOvercast.6 mph68%30.06 "Hg16 mi
4:00 PM62 °FPartly sunny.5 mph65%30.05 "Hg16 mi
3:00 PM62 °FScattered clouds.6 mph65%30.06 "Hg16 mi
2:00 PM61 °FScattered clouds.5 mph65%30.08 "Hg12 mi
1:00 PM59 °FPartly sunny.5 mph74%30.10 "Hg9 mi
12:00 PM55 °FOvercast.1 mph83%30.12 "Hg9 mi
11:00 AM52 °FLow clouds.2 mph90%30.13 "Hg6 mi
10:00 AM50 °FLow clouds.2 mph93%30.14 "Hg5 mi
9:00 AM50 °FLow clouds.1 mph97%30.14 "Hg5 mi
8:00 AM49 °FLow clouds.1 mph98%30.14 "Hg7 mi
Weather by CustomWeather, © 2015

See weather overviewHow to use our weather pages